Wind_Speed
22 21 21 22 22 22 21 20 18 18 17 16 16 15 15 15 15 16 17 17 18 18 19 19 20 20 19 18 18 17 16 16 15 14 14 14 14 14 15 15 15 16 16
25 26 26 25 25 25 25 24 22 21 20 19 19 19 18 18 19 19 19 20 20 20 20 21 21 22 22 21 20 20 20 19 19 18 17 16 16 16 16 16 17 17 17
30 30 30 29 29 28 27 27 25 25 24 22 22 22 22 22 22 22 23 23 23 23 22 23 23 24 24 24 24 23 23 22 22 21 20 19 18 17 17 18 18 18 18
35 34 33 33 32 31 30 29 29 28 27 26 25 25 25 25 26 26 26 26 26 26 26 25 25 25 26 27 27 26 26 25 24 24 23 22 21 20 19 19 19 19 19
38 38 38 37 35 34 34 33 32 31 31 30 29 29 29 29 29 30 30 30 29 29 29 28 28 27 27 28 28 29 29 28 27 27 26 26 24 22 21 21 20 20 20
42 42 42 41 40 38 37 36 35 35 34 34 33 32 32 32 32 33 34 34 34 33 32 32 31 30 29 29 29 30 31 31 30 29 29 29 27 25 23 22 22 22 22
46 46 46 45 45 42 40 39 38 37 37 36 35 35 34 34 34 35 37 37 37 36 35 34 34 33 32 32 31 31 32 32 33 33 32 31 30 28 26 24 23 23 23
48 48 48 48 46 44 42 42 40 38 37 37 37 37 35 35 37 37 38 39 39 39 37 36 36 36 35 35 34 33 33 33 33 33 32 32 31 30 28 26 25 24 24
47 49 48 48 47 45 43 42 41 39 38 37 38 38 37 37 38 38 39 40 40 40 39 38 37 37 37 37 36 35 34 34 33 33 32 31 31 31 30 28 26 25 25
46 46 47 47 46 42 39 38 37 36 35 36 36 38 39 39 39 38 37 39 39 40 40 39 38 38 38 38 37 36 35 35 35 34 33 32 32 32 32 30 28 27 26
46 46 44 43 41 38 36 35 34 34 34 35 36 37 38 38 39 38 36 36 37 38 38 38 38 37 37 37 37 37 37 36 36 35 35 35 34 33 33 32 30 28 27
48 45 44 40 35 34 33 32 33 33 34 35 36 36 37 37 36 36 35 33 33 35 36 37 37 37 37 37 37 38 38 37 37 36 36 36 36 36 35 34 32 30 28
46 44 43 38 33 32 31 31 31 32 33 34 35 35 35 34 34 33 32 31 31 32 35 36 37 37 38 38 38 39 38 38 38 38 37 37 38 37 36 35 34 31 30
44 42 40 36 32 31 30 30 31 32 33 33 33 33 32 32 31 31 31 30 30 31 33 35 37 38 38 38 38 38 39 39 39 40 39 38 38 39 38 37 35 33 31
42 41 39 37 33 31 30 30 31 31 31 31 31 30 31 31 31 30 30 30 30 31 31 33 36 38 39 38 38 38 39 39 39 40 40 40 39 40 39 38 37 34 32
42 40 39 36 33 31 31 31 31 31 30 30 29 29 30 31 31 31 31 31 31 32 32 32 34 36 37 38 38 39 39 40 39 40 41 40 40 39 39 39 38 35 33
40 38 36 34 32 31 31 31 30 30 29 29 29 30 31 32 32 32 33 33 33 33 33 32 32 32 33 34 36 38 40 40 40 39 38 40 40 39 39 40 39 36 33
38 37 34 32 32 31 31 30 29 28 28 29 30 31 32 32 33 34 34 35 35 34 34 33 32 31 31 31 31 33 35 36 37 37 37 38 38 38 38 39 38 36 33
35 34 31 30 30 29 29 28 28 28 28 29 30 31 32 33 34 34 35 36 36 35 35 34 33 32 30 29 29 30 32 32 33 33 34 34 35 35 34 36 36 34 33
30 29 28 28 27 26 26 26 27 27 28 29 30 31 32 33 34 35 35 36 36 36 36 35 34 33 31 29 28 27 28 28 28 29 31 31 32 31 30 31 32 31 31
25 25 26 26 25 25 25 25 26 27 27 28 29 30 31 33 33 34 35 35 36 36 36 35 35 34 32 30 29 27 27 25 24 25 27 27 27 28 28 28 29 30 30
21 21 22 22 22 23 23 24 24 25 26 27 28 29 30 31 32 33 34 34 34 35 35 35 35 34 33 32 31 29 28 26 25 24 24 24 24 24 26 28 29 30 32
17 17 18 18 19 20 20 21 21 22 23 24 25 26 28 29 30 30 31 32 32 33 33 33 33 33 33 32 31 31 30 29 27 25 24 21 21 23 24 25 28 31 33
13 13 14 15 16 17 17 18 18 19 20 22 23 24 25 25 26 27 28 28 29 30 31 31 32 32 32 32 31 30 30 30 30 29 27 25 23 22 23 25 27 30 33
12 12 13 13 13 14 14 14 15 17 18 19 20 20 21 22 23 24 25 26 27 28 29 30 31 31 31 32 31 31 31 30 30 31 30 28 27 25 24 25 25 26 29
11 11 12 12 12 12 12 13 14 14 15 15 16 17 18 20 21 23 24 26 27 28 29 30 30 31 32 32 31 31 31 31 31 30 30 30 29 28 27 26 25 25 27
Wind_Direction
283 281 280 277 275 274 272 271 271 273 278 284 290 297 302 307 309 310 308 304 300 295 292 289 286 284 283 282 282 282 280 279 279 281 283 283 282 281 279 277 276 275 273
280 278 277 276 274 273 272 271 270 270 273 277 282 288 293 296 301 304 304 303 301 297 292 289 285 281 279 278 279 278 277 276 276 277 278 278 280 280 280 278 278 276 273
277 276 274 274 272 271 270 269 269 269 270 273 276 280 284 288 292 297 298 298 297 297 294 289 286 281 277 274 274 275 275 275 274 274 274 275 277 278 279 278 277 277 275
275 273 272 272 271 270 268 267 267 267 269 271 273 277 280 283 286 289 292 292 293 293 293 290 286 282 277 274 271 271 272 273 272 271 271 272 274 276 276 276 276 276 275
272 271 270 270 269 268 266 265 266 266 268 270 271 274 277 280 282 285 287 288 289 289 289 288 286 283 278 275 272 270 270 271 270 269 269 269 270 272 273 273 274 274 275
269 269 269 270 268 266 266 266 266 266 267 268 270 272 275 277 280 283 285 286 287 287 286 285 284 282 279 276 273 270 268 268 268 268 268 267 266 267 270 271 272 273 273
267 267 267 267 267 266 266 266 267 268 267 269 271 273 275 277 279 282 284 286 286 285 284 282 281 280 277 275 273 271 269 268 266 266 266 265 263 263 266 269 270 272 272
267 267 266 266 266 267 266 267 267 265 267 270 273 274 276 278 280 282 284 285 285 284 282 280 279 277 275 274 272 270 268 267 267 266 265 263 260 260 262 265 268 271 272
271 269 266 265 267 267 266 267 266 265 267 269 272 275 278 279 281 284 285 285 284 283 281 279 277 275 274 272 270 268 266 264 264 264 263 262 259 258 260 263 266 269 271
274 272 272 271 267 265 263 262 262 262 264 267 271 276 280 283 284 285 285 285 283 282 280 278 276 274 272 270 268 266 264 262 261 261 261 261 260 258 258 260 264 267 269
277 276 275 272 267 262 260 261 260 262 263 268 272 276 281 285 287 288 287 285 283 282 279 277 274 271 268 267 266 265 262 260 260 260 260 260 260 259 258 258 261 263 265
280 278 274 272 264 261 259 260 262 263 267 271 274 278 281 284 286 287 287 285 283 281 279 276 274 270 267 264 263 263 261 259 259 261 261 261 260 259 258 256 257 260 262
278 275 273 268 261 258 259 262 264 267 270 273 276 279 281 283 285 286 286 285 284 281 278 276 273 271 268 264 262 261 261 260 260 261 261 261 261 260 257 255 255 257 259
274 271 268 261 259 259 261 264 267 270 273 274 276 278 279 281 282 284 285 285 284 283 281 277 275 272 270 266 264 262 261 261 260 261 261 263 261 259 257 256 254 253 255
271 269 264 260 257 258 260 264 268 271 273 274 275 276 278 279 280 281 283 284 284 284 282 279 276 274 272 270 267 264 262 262 262 261 262 262 262 260 258 255 253 251 250
269 267 260 257 256 258 262 266 268 270 272 272 273 275 277 278 279 280 282 283 284 283 283 282 278 276 274 270 268 265 264 262 262 261 261 261 260 259 258 255 252 250 249
262 260 256 256 256 259 262 265 268 270 271 272 274 275 276 277 278 279 280 280 282 282 283 284 284 281 278 275 271 268 264 264 262 261 261 261 260 260 257 254 251 248 245
256 256 254 255 256 259 262 266 268 269 271 273 274 275 276 277 277 278 279 279 279 281 282 282 283 283 281 279 274 271 267 265 262 261 261 261 260 260 258 254 250 245 241
251 249 249 254 258 262 264 266 268 270 272 273 274 275 276 277 277 277 277 277 278 279 280 281 281 282 281 281 279 274 271 268 263 261 259 259 258 258 256 252 248 242 238
247 246 248 254 258 262 264 268 270 272 274 275 276 277 277 277 277 277 277 277 277 278 278 279 279 279 279 280 280 277 272 266 263 260 255 254 254 252 252 250 243 238 234
243 245 249 254 258 262 266 269 272 274 276 277 277 278 278 278 278 278 278 277 277 278 278 278 278 278 278 278 277 275 272 267 262 257 253 251 248 247 246 244 238 234 230
245 248 252 256 261 265 267 269 273 275 277 278 279 279 280 280 280 280 280 279 279 279 279 279 278 277 277 276 276 275 273 270 266 259 255 250 247 244 243 241 236 231 225
251 253 258 261 263 266 269 272 275 276 277 279 281 282 284 284 284 284 283 282 282 281 280 280 280 278 277 275 274 273 272 271 270 265 261 256 250 245 243 240 236 232 227
261 259 262 264 266 267 269 273 275 276 278 281 284 286 288 289 289 288 288 289 288 287 286 284 282 281 279 277 275 273 272 270 269 268 266 260 257 253 247 244 240 235 230
262 260 258 260 261 263 267 270 274 277 280 283 286 289 290 292 293 293 293 292 291 290 288 287 285 283 281 279 276 272 269 268 266 265 264 263 260 257 252 249 246 239 233
254 251 250 252 257 260 264 269 273 277 281 285 289 291 294 296 297 297 296 295 294 292 289 286 284 281 279 278 276 274 271 267 265 263 260 260 260 257 256 252 246 242 237
Height
5911 5910 5909 5907 5906 5904 5903 5902 5902 5901 5900 5898 5897 5895 5894 5892 5890 5889 5887 5886 5884 5883 5882 5881 5880 5880 5879 5879 5878 5877 5877 5876 5876 5875 5875 5874 5874 5873 5873 5872 5872 5871 5871
5906 5905 5904 5903 5901 5900 5898 5898 5897 5896 5895 5894 5892 5891 5889 5888 5886 5885 5884 5882 5881 5879 5878 5877 5876 5875 5875 5874 5874 5873 5873 5872 5872 5871 5871 5871 5870 5870 5869 5869 5868 5868 5868
5900 5899 5898 5897 5896 5894 5893 5892 5891 5890 5889 5888 5887 5886 5884 5883 5882 5880 5879 5877 5876 5875 5873 5872 5871 5870 5870 5869 5869 5868 5868 5868 5867 5867 5867 5866 5866 5866 5865 5865 5864 5864 5864
5892 5892 5891 5890 5889 5888 5887 5886 5885 5884 5883 5882 5881 5880 5879 5877 5876 5874 5873 5872 5871 5869 5868 5867 5866 5865 5864 5863 5863 5863 5863 5862 5862 5861 5861 5861 5861 5861 5861 5860 5860 5860 5859
5884 5883 5882 5881 5881 5881 5880 5879 5878 5877 5876 5875 5874 5874 5872 5871 5870 5868 5867 5865 5864 5863 5862 5861 5860 5859 5858 5857 5857 5857 5856 5856 5856 5855 5855 5856 5856 5856 5856 5855 5855 5855 5855
5874 5873 5872 5871 5871 5871 5871 5871 5870 5869 5869 5868 5867 5866 5866 5864 5863 5861 5860 5858 5857 5856 5855 5854 5853 5852 5851 5850 5850 5850 5849 5849 5849 5849 5849 5849 5850 5850 5850 5850 5850 5850 5849
5863 5863 5862 5861 5861 5861 5862 5862 5862 5861 5860 5860 5859 5859 5858 5857 5855 5854 5852 5850 5849 5848 5847 5846 5845 5844 5843 5843 5842 5842 5842 5842 5842 5842 5842 5842 5843 5843 5844 5844 5844 5844 5844
5853 5852 5851 5851 5851 5851 5852 5852 5853 5853 5852 5851 5851 5850 5850 5850 5847 5846 5844 5842 5840 5839 5838 5837 5836 5836 5835 5835 5835 5834 5834 5834 5834 5834 5835 5835 5835 5836 5837 5837 5837 5837 5838
5842 5841 5840 5841 5841 5842 5843 5843 5844 5844 5844 5844 5842 5841 5841 5841 5839 5838 5835 5833 5831 5829 5828 5827 5827 5826 5826 5826 5826 5826 5826 5827 5827 5827 5827 5827 5827 5828 5829 5830 5831 5831 5831
5832 5831 5831 5830 5830 5831 5832 5833 5834 5835 5836 5835 5834 5832 5831 5829 5828 5828 5827 5823 5821 5819 5817 5817 5817 5817 5816 5816 5816 5817 5818 5818 5818 5819 5819 5819 5820 5820 5821 5822 5823 5823 5824
5822 5821 5821 5821 5821 5821 5822 5824 5826 5826 5827 5826 5826 5824 5822 5820 5818 5816 5817 5815 5811 5809 5808 5807 5806 5806 5806 5806 5806 5807 5808 5808 5809 5810 5810 5811 5811 5812 5813 5814 5815 5816 5816
5811 5811 5811 5810 5811 5812 5813 5815 5817 5817 5817 5817 5816 5815 5814 5812 5810 5808 5807 5805 5803 5801 5799 5797 5797 5797 5797 5797 5797 5797 5798 5799 5799 5800 5801 5801 5802 5803 5804 5805 5806 5808 5809
5801 5800 5801 5801 5801 5802 5804 5806 5807 5807 5808 5808 5807 5805 5804 5803 5801 5800 5798 5797 5795 5793 5791 5789 5788 5787 5787 5787 5787 5788 5788 5788 5790 5791 5791 5792 5793 5794 5795 5796 5798 5799 5801
5791 5790 5790 5791 5792 5794 5795 5797 5798 5798 5798 5798 5797 5796 5795 5794 5793 5792 5791 5789 5788 5786 5784 5781 5779 5779 5778 5778 5777 5777 5778 5779 5779 5781 5781 5782 5783 5784 5785 5787 5788 5790 5792
5781 5781 5781 5782 5783 5785 5786 5788 5788 5789 5789 5789 5789 5788 5787 5786 5785 5784 5783 5781 5781 5779 5777 5774 5772 5770 5769 5768 5768 5768 5768 5768 5769 5770 5771 5772 5773 5774 5775 5777 5779 5781 5783
5770 5771 5771 5773 5774 5776 5778 5779 5780 5780 5780 5780 5780 5779 5778 5778 5777 5776 5775 5773 5772 5771 5769 5766 5764 5762 5760 5759 5758 5758 5757 5758 5758 5759 5760 5761 5762 5764 5765 5767 5769 5771 5774
5759 5761 5761 5763 5765 5767 5769 5770 5771 5772 5772 5772 5771 5771 5770 5769 5768 5767 5766 5765 5764 5762 5760 5758 5756 5753 5751 5750 5749 5748 5747 5748 5748 5749 5750 5751 5752 5753 5754 5756 5759 5761 5764
5749 5751 5753 5755 5757 5759 5760 5762 5763 5763 5763 5763 5763 5762 5761 5761 5760 5759 5758 5757 5755 5753 5752 5750 5747 5745 5743 5740 5739 5738 5737 5737 5738 5738 5739 5740 5741 5743 5744 5746 5748 5751 5755
5739 5741 5744 5746 5748 5750 5752 5753 5754 5754 5754 5754 5754 5753 5753 5752 5751 5750 5749 5748 5746 5745 5743 5741 5739 5737 5735 5733 5731 5730 5729 5728 5728 5729 5729 5730 5731 5733 5735 5737 5739 5742 5745
5730 5732 5735 5738 5740 5742 5744 5745 5746 5746 5746 5746 5745 5745 5744 5743 5743 5741 5740 5739 5737 5736 5734 5733 5731 5730 5728 5726 5725 5723 5722 5720 5720 5720 5720 5721 5722 5724 5726 5728 5731 5734 5737
5723 5726 5728 5731 5733 5735 5736 5737 5738 5738 5738 5738 5737 5736 5736 5735 5733 5732 5731 5730 5729 5727 5726 5724 5723 5722 5721 5719 5718 5717 5716 5714 5713 5712 5713 5713 5714 5716 5718 5720 5723 5726 5729
5717 5719 5722 5724 5726 5728 5729 5730 5730 5730 5730 5730 5729 5728 5727 5726 5725 5724 5723 5721 5720 5718 5717 5715 5714 5713 5712 5711 5711 5710 5709 5707 5706 5706 5705 5706 5707 5708 5710 5712 5715 5718 5721
5712 5714 5716 5718 5720 5721 5722 5723 5723 5723 5723 5723 5722 5721 5720 5719 5717 5716 5714 5712 5711 5709 5708 5707 5705 5704 5703 5703 5702 5702 5701 5700 5699 5699 5699 5699 5700 5701 5703 5705 5707 5710 5714
5708 5710 5711 5713 5714 5716 5717 5717 5718 5717 5717 5717 5716 5715 5713 5712 5710 5709 5707 5705 5703 5701 5699 5698 5697 5695 5694 5694 5694 5693 5693 5693 5692 5692 5692 5693 5693 5694 5696 5698 5700 5702 5706
5705 5706 5707 5709 5710 5711 5711 5712 5712 5712 5712 5711 5710 5709 5708 5707 5705 5703 5701 5698 5696 5694 5692 5690 5688 5687 5686 5685 5684 5684 5684 5685 5685 5685 5685 5686 5686 5687 5689 5691 5692 5695 5698
5701 5702 5704 5705 5705 5706 5707 5707 5708 5708 5707 5706 5706 5705 5703 5701 5699 5697 5695 5692 5690 5687 5685 5682 5680 5679 5677 5676 5676 5675 5675 5676 5676 5677 5677 5679 5679 5680 5682 5683 5685 5687 5690